Theta_e
313 313 313 313 314 314 314 314 315 316 316 317 318 318 318 318 318 310 304 311 313 324 324 307 305 306 306 303 305 310 299 297 301 303 305 311 309 315 314 310 312 317 324 327 333
312 313 313 313 313 313 314 314 315 315 316 317 318 318 318 318 310 307 318 324 325 324 307 303 302 304 299 300 301 301 298 300 306 309 308 311 311 312 311 311 309 315 326 329 331
312 312 313 312 313 313 313 314 314 315 316 317 317 317 318 317 306 305 325 326 324 319 311 308 305 301 297 299 300 301 298 305 308 311 313 312 312 314 311 307 308 309 322 326 328
312 312 313 313 313 313 313 314 314 315 315 316 316 317 318 312 295 311 325 327 326 318 311 307 300 293 293 294 300 296 301 305 306 309 309 308 313 311 312 312 315 314 316 321 325
312 312 312 312 312 313 313 313 314 314 314 315 316 317 312 305 306 312 328 326 317 312 309 304 298 294 291 295 297 296 299 302 305 307 308 309 307 309 311 315 318 317 315 314 321
312 312 312 312 312 312 313 313 313 313 314 315 316 318 309 300 307 311 317 311 311 306 302 303 299 301 295 294 293 297 299 301 303 302 306 306 307 309 311 315 316 317 314 314 320
313 312 312 312 312 312 313 313 313 313 314 315 316 314 304 301 308 306 307 302 305 307 304 305 305 300 298 294 298 298 294 297 299 301 301 304 301 306 312 313 312 314 315 314 315
312 312 311 312 312 312 312 313 312 313 314 317 317 309 300 314 309 306 305 304 307 306 306 306 306 300 296 298 297 293 293 286 293 300 301 300 293 302 308 310 310 313 315 316 315
312 311 311 311 311 312 312 312 312 313 315 318 309 305 302 313 305 307 305 304 306 305 306 308 303 297 297 291 287 289 285 286 290 296 298 297 295 302 306 307 307 309 311 315 316
311 311 311 311 312 312 311 312 313 313 313 312 312 301 306 303 304 307 307 308 303 303 302 301 296 292 290 288 280 284 286 289 288 292 295 293 295 301 304 304 304 307 310 314 315
311 311 310 311 312 311 308 306 302 301 304 303 305 305 304 304 307 305 308 304 302 299 292 296 289 287 291 294 294 292 290 289 293 296 293 292 293 296 299 302 303 305 306 311 314
310 311 311 311 312 311 305 301 302 301 295 304 304 303 306 304 299 303 308 298 296 290 294 290 286 293 297 296 294 293 290 289 293 295 294 292 292 296 298 299 300 304 306 307 311
310 310 311 312 311 307 304 308 307 306 294 299 305 302 302 301 298 299 303 299 294 291 291 287 291 296 294 292 291 290 289 289 289 294 295 291 289 292 296 299 302 303 306 307 309
310 310 310 310 306 307 305 308 308 307 288 296 298 300 302 301 297 305 304 299 294 290 291 289 293 293 291 290 292 287 293 292 291 288 283 291 281 289 293 295 299 301 302 303 306
309 309 310 309 302 303 305 307 308 303 281 297 297 304 301 297 298 300 305 299 292 292 291 288 290 290 290 292 295 291 296 293 292 289 285 286 282 287 292 292 294 299 302 303 305
308 309 308 308 305 307 311 308 305 290 282 292 297 296 294 297 298 301 299 300 299 293 293 291 296 294 294 297 296 297 293 291 290 287 280 284 283 284 288 292 295 298 301 304 307
307 307 306 308 303 311 309 303 289 285 298 292 292 295 294 293 295 297 294 291 287 284 284 289 289 294 298 292 295 292 286 278 276 278 278 286 284 285 291 295 297 297 299 302 304
306 306 308 308 307 309 305 295 283 294 293 296 294 294 291 295 295 295 292 288 294 290 283 281 280 290 295 291 287 288 288 280 275 275 278 287 281 285 294 297 299 301 300 301 303
305 307 308 311 312 308 297 286 288 293 295 292 293 290 290 294 293 292 290 290 293 294 285 283 285 294 295 295 294 290 284 291 284 285 279 282 287 292 295 296 298 298 299 300 302
301 304 308 314 312 303 292 291 294 296 295 294 287 292 287 289 289 289 290 294 293 296 295 289 283 292 293 295 294 290 293 282 284 275 275 281 283 283 292 292 295 296 297 300 302
301 301 308 313 307 296 288 292 296 299 297 293 291 290 290 289 289 288 289 293 296 295 295 291 288 287 291 288 286 287 286 286 285 283 275 274 279 294 291 293 294 295 298 300 302
301 295 309 307 291 295 291 297 297 297 299 296 296 293 291 291 289 288 288 292 298 296 290 293 287 282 285 292 294 291 289 287 282 279 282 280 281 294 294 295 296 296 299 302 304
296 300 308 305 289 290 295 295 297 297 296 294 293 294 293 289 286 291 292 297 298 295 291 291 285 280 282 287 292 288 289 290 288 287 281 280 282 295 296 296 297 297 300 302 303
299 293 300 301 299 293 291 292 292 299 297 297 295 294 292 290 292 290 290 295 297 296 298 296 289 284 279 283 287 285 288 289 287 283 282 283 287 291 293 295 297 299 299 300 301
300 295 295 290 291 293 294 293 292 291 297 296 292 292 291 286 288 288 291 293 295 300 296 293 286 287 288 289 290 288 288 288 286 287 283 286 287 291 294 295 298 299 300 299 300
293 291 293 290 294 293 294 290 290 292 291 290 290 292 291 287 288 287 291 291 289 295 293 294 285 289 287 289 289 287 289 289 288 288 288 289 288 295 297 298 298 298 299 299 300
300 298 295 290 291 290 290 291 291 293 295 295 293 290 290 292 295 296 296 295 295 292 289 287 287 285 281 288 288 283 288 289 290 292 290 286 291 294 295 296 296 297 299 299 302
Wind_Speed
17 17 17 18 17 18 18 18 17 17 17 18 18 18 17 17 18 9 7 2 3 7 9 9 11 9 8 5 5 4 8 11 16 16 19 19 13 18 12 6 6 6 5 6 9
18 18 18 18 18 18 18 18 18 18 17 18 18 18 17 17 10 9 4 5 7 4 4 6 9 6 5 4 6 6 8 18 15 16 19 21 16 17 15 19 8 3 9 10 15
18 18 19 19 19 19 19 19 19 19 19 19 19 19 16 13 6 2 10 10 11 4 5 8 10 8 6 6 10 7 20 14 17 19 22 23 22 15 16 15 10 4 3 6 23
19 19 19 19 19 19 20 19 19 19 19 19 19 19 17 4 5 4 14 13 12 4 6 7 7 5 4 7 7 17 18 18 19 22 23 25 20 22 19 16 17 11 2 8 13
18 19 20 21 21 20 20 20 20 20 19 18 18 16 9 3 8 9 15 14 9 6 11 8 6 6 8 6 13 21 18 17 20 19 24 25 25 21 24 20 20 16 7 4 10
19 20 21 21 21 21 21 20 19 19 19 18 16 13 4 5 2 12 12 12 11 6 3 8 6 9 7 8 9 9 15 16 17 18 19 26 26 19 23 18 17 19 9 2 9
19 20 22 22 22 22 21 19 18 19 20 17 12 6 6 15 4 3 7 4 7 5 2 4 8 7 10 10 8 11 12 14 17 13 16 10 19 28 20 19 20 21 13 8 6
22 22 23 23 23 23 23 20 20 21 19 15 6 4 8 5 10 6 7 8 6 7 5 7 6 4 5 8 11 8 9 7 2 13 19 8 24 20 13 16 17 19 19 19 8
23 23 25 26 24 24 22 22 23 21 15 9 4 5 8 4 4 3 3 5 6 6 7 8 4 5 5 6 6 5 9 11 16 8 8 11 25 23 14 15 19 20 20 20 20
25 24 24 26 26 23 22 23 15 7 8 7 8 4 8 5 4 2 8 2 7 8 8 7 5 5 4 4 5 7 10 10 15 6 13 16 19 24 21 20 20 19 19 16 17
24 25 28 26 24 20 11 7 3 1 4 9 7 11 16 5 4 5 4 3 7 7 5 7 4 6 13 13 16 15 15 13 13 9 12 13 15 19 12 18 20 21 12 17 18
26 25 27 26 24 18 5 4 7 6 8 12 16 16 11 3 6 8 3 3 6 7 9 7 6 8 13 12 12 12 16 15 11 11 14 15 17 20 15 15 14 20 21 18 15
24 25 25 26 25 7 5 8 6 7 4 12 11 8 6 1 5 8 3 3 6 8 8 7 12 15 17 16 15 12 14 10 14 10 12 9 17 21 20 14 16 16 18 18 18
26 26 25 28 6 4 2 5 7 7 3 6 5 4 3 5 7 9 7 5 3 7 8 7 10 15 13 14 15 16 14 18 17 11 12 4 16 15 21 17 13 15 12 10 8
26 26 27 14 8 5 4 5 4 3 2 6 9 6 4 6 6 12 9 6 9 12 6 10 11 14 10 12 17 13 23 13 18 18 10 8 10 12 10 19 17 16 12 12 11
27 27 24 2 4 10 10 8 4 1 4 6 6 6 7 9 9 4 8 8 9 11 9 11 8 1 3 10 10 14 13 15 15 8 12 10 7 18 12 17 17 16 15 18 20
30 31 18 5 5 9 6 5 2 3 5 6 6 13 12 14 16 7 2 4 4 5 6 6 5 2 4 5 7 10 7 5 5 8 14 10 14 20 11 16 14 15 20 16 11
32 32 5 6 7 9 4 2 2 8 7 12 12 12 15 12 11 13 12 6 7 6 4 5 8 1 3 5 4 6 3 4 5 5 7 14 11 13 11 18 16 15 15 15 17
28 5 2 4 7 2 3 2 1 10 12 13 13 11 11 17 9 11 8 5 6 9 6 6 7 11 8 13 10 5 7 15 10 8 3 8 16 14 17 10 20 24 28 20 19
7 4 3 6 2 2 1 4 4 8 11 9 6 6 12 13 10 11 9 8 14 13 12 7 15 6 11 13 11 8 6 6 3 3 4 6 11 9 14 16 19 21 24 24 25
2 2 1 4 3 1 1 4 14 12 2 3 10 12 9 8 11 13 10 14 10 11 9 7 4 10 10 5 13 13 4 5 3 1 4 4 4 2 6 8 15 20 24 23 18
5 2 4 2 1 2 3 7 13 13 9 5 1 5 6 9 9 10 12 7 9 5 5 3 4 11 19 18 18 13 4 5 4 5 4 4 9 4 6 9 13 18 24 24 18
7 4 1 2 0 4 8 13 13 14 9 5 5 5 6 7 5 7 13 11 7 5 4 3 4 7 10 6 4 4 4 4 0 5 7 6 6 6 10 12 12 13 23 24 22
4 5 3 2 4 7 8 7 13 9 8 14 3 7 7 8 7 7 13 7 7 5 1 1 4 9 11 15 10 18 13 11 5 4 10 12 16 19 5 4 9 15 21 24 20
2 4 5 5 5 11 11 7 10 9 7 9 7 10 10 7 12 12 14 20 9 5 2 6 7 12 20 20 20 22 19 19 19 16 16 21 17 18 8 5 1 10 24 28 25
4 5 6 7 10 9 11 5 7 10 10 10 8 11 10 11 14 20 16 13 8 6 3 3 5 8 16 21 20 22 19 21 19 19 18 22 21 24 8 5 9 16 28 24 21
4 3 3 7 7 7 4 10 13 10 2 9 11 10 12 16 15 14 15 18 18 7 4 3 3 4 6 11 13 7 8 10 9 14 14 14 15 5 6 11 18 21 22 20 15
Wind_Direction
345 341 339 337 336 335 333 331 329 328 325 321 319 318 321 323 316 300 233 223 249 315 305 272 270 256 260 248 273 280 241 244 240 250 263 287 304 313 304 305 328 323 104 161 112
344 338 337 335 332 332 330 327 326 323 320 318 317 320 324 325 298 261 207 200 240 245 291 308 308 288 218 228 216 206 234 233 248 255 267 280 289 295 326 323 300 49 128 155 110
342 336 335 333 330 329 327 325 323 320 319 319 320 323 321 321 283 114 182 220 237 211 243 254 270 284 273 229 228 230 240 248 252 255 259 274 286 316 310 300 285 271 221 146 135
338 336 333 330 327 324 322 320 319 316 315 317 319 324 317 261 23 157 196 221 233 243 282 274 239 243 265 251 271 247 245 242 253 273 283 279 296 298 298 286 288 282 148 312 153
338 334 332 328 325 321 317 316 315 313 311 312 317 325 336 252 247 186 203 221 244 219 231 269 296 268 241 245 236 257 269 261 248 245 257 274 270 275 283 286 297 288 308 26 267
337 334 330 326 322 318 315 312 309 308 307 308 313 316 233 261 83 173 204 226 216 223 308 313 297 309 272 281 278 296 292 278 268 260 245 246 265 261 262 273 280 288 283 297 292
337 335 331 326 321 317 313 308 306 305 303 304 304 287 261 244 290 302 259 342 291 280 276 252 330 360 335 320 292 324 310 291 278 274 264 284 261 253 254 260 270 283 286 279 224
336 333 332 326 321 317 312 309 305 298 296 298 274 280 253 275 234 287 15 320 312 345 287 290 202 255 279 278 297 299 290 289 360 244 264 275 273 263 277 254 258 269 274 272 248
335 332 331 328 322 319 313 305 294 286 282 270 241 202 274 160 210 58 329 287 298 285 292 272 168 198 292 283 295 240 266 276 286 272 263 211 259 266 263 267 255 250 263 267 269
335 331 328 326 322 321 317 294 277 310 250 235 248 270 274 257 73 349 266 281 297 267 272 236 196 190 245 208 240 251 257 256 254 268 256 260 255 254 252 248 258 242 241 245 253
333 327 329 324 322 325 337 342 355 316 246 248 226 240 299 323 41 324 290 331 278 332 303 311 329 237 231 238 237 249 263 281 291 337 333 294 289 287 299 263 246 249 255 235 232
331 327 328 324 321 318 284 257 26 261 301 272 267 264 269 275 273 275 312 320 337 310 308 328 281 274 304 293 276 282 276 276 299 315 299 301 294 293 295 286 272 257 241 237 233
332 329 330 325 319 299 223 285 309 19 309 297 223 232 215 43 269 269 134 283 314 315 312 318 301 315 315 312 311 301 295 298 280 282 270 295 294 292 289 281 283 267 255 238 224
331 330 332 332 316 302 263 330 7 49 300 208 158 177 198 231 247 206 191 177 254 291 293 278 290 292 300 300 302 289 272 283 288 287 275 220 277 280 290 288 286 279 268 259 249
329 329 329 323 300 301 320 341 24 57 5 187 131 154 207 214 263 289 162 160 236 250 254 249 277 291 307 353 339 315 329 308 313 288 290 268 277 278 288 281 278 285 282 259 239
328 323 331 6 198 253 305 338 1 283 263 143 156 212 204 253 296 256 249 176 227 245 258 261 255 320 184 330 318 307 341 332 303 271 264 259 242 274 258 275 279 282 282 283 264
326 318 316 274 252 324 3 337 357 237 233 69 9 4 337 302 284 258 283 279 273 289 294 321 330 29 97 306 319 335 42 313 298 250 256 242 245 245 249 252 270 275 276 277 290
327 314 235 214 267 311 12 344 253 330 1 5 1 326 289 315 10 342 315 330 332 21 339 306 314 76 126 191 241 296 253 186 275 270 297 313 284 275 284 307 291 290 274 282 286
325 306 245 245 243 318 18 311 331 323 7 2 349 322 331 357 1 328 337 329 358 19 342 316 287 303 225 258 242 170 259 236 218 284 335 271 282 285 276 347 0 355 346 319 296
319 284 273 175 136 5 7 287 299 30 357 354 316 317 339 345 353 336 335 346 342 34 4 334 308 289 328 332 313 184 205 309 218 242 253 249 272 267 8 358 345 342 332 319 322
219 264 171 315 87 10 268 265 305 327 29 357 307 311 337 335 333 319 309 320 343 12 351 28 293 296 321 281 290 311 314 1 40 213 205 261 254 50 8 358 337 328 332 313 312
310 325 188 167 18 199 249 292 345 335 4 320 50 319 351 324 318 304 295 301 80 65 336 66 274 282 273 278 271 277 317 179 223 280 251 265 287 6 42 1 342 330 320 299 300
313 268 220 109 50 329 326 348 312 338 331 333 3 357 326 297 308 319 295 312 65 37 6 350 291 305 301 257 109 105 317 133 272 231 241 284 267 57 3 359 329 340 309 302 314
293 324 16 338 12 18 336 329 327 320 341 352 276 285 290 289 283 279 307 304 285 235 263 131 234 222 260 269 302 293 284 266 261 273 285 259 279 282 248 348 315 338 298 294 299
319 24 355 322 338 316 301 291 305 337 358 352 333 329 346 326 316 298 311 303 301 58 97 187 247 233 256 269 273 271 275 271 261 244 253 275 280 283 213 111 268 291 288 281 291
6 360 348 293 307 294 292 347 347 331 331 314 295 329 331 304 283 290 300 305 301 3 236 198 267 275 269 271 261 267 262 259 259 263 254 265 274 278 211 202 243 248 249 264 272
356 329 330 291 303 310 18 332 311 306 278 295 289 304 298 280 289 304 290 282 281 184 184 204 270 267 263 322 322 287 300 267 273 281 235 262 290 175 199 215 230 243 262 270 276